Overview Statistics Trail Chart Weather Telemetry Raw packets
 

This is the latest recevied weather packets stored in our database for station/object KB1RMA-4. If no packets are shown the sender has not sent any weather packets the latest 10 day(s).

<< 65 66 67 68 69 70 71 >>
Time Temp. Humidity Pressure Rain* Wind** Luminosity Snow
1788178106 17.22° C 71% 1020.4 hPa 0 mm - 35 W/m² -
1788177800 17.22° C 73% 1020.3 hPa 0 mm - 35 W/m² -
1788177496 16.67° C 74% 1020.3 hPa 0 mm - 35 W/m² -
1788177192 16.67° C 76% 1020.1 hPa 0 mm - 34 W/m² -
1788176891 16.67° C 77% 1020.1 hPa 0 mm - 33 W/m² -
1788176590 16.11° C 78% 1020.3 hPa 0 mm - 32 W/m² -
1788176286 16.11° C 79% 1020.2 hPa 0 mm - 31 W/m² -
1788175981 16.11° C 81% 1020.3 hPa 0 mm - 30 W/m² -
1788175680 15.56° C 81% 1020.4 hPa 0 mm - 29 W/m² -
1788175375 15.56° C 82% 1020.3 hPa 0 mm - 28 W/m² -
1788175070 15.56° C 84% 1020.3 hPa 0 mm - 27 W/m² -
1788174767 15° C 87% 1020 hPa 0 mm - 26 W/m² -
1788174462 15° C 90% 1020.4 hPa 0 mm - 24 W/m² -
1788174157 15° C 90% 1020.4 hPa 0 mm - 23 W/m² -
1788173855 15° C 91% 1020.2 hPa 0 mm - 21 W/m² -
1788173552 15° C 91% 1020.3 hPa 0 mm - 19 W/m² -
1788173246 15° C 91% 1020.2 hPa 0 mm - 18 W/m² -
1788172943 15° C 91% 1020.2 hPa 0 mm - 16 W/m² -
1788172642 15° C 91% 1020.1 hPa 0 mm - 13 W/m² -
1788172339 15° C 91% 1020.1 hPa 0 mm - 11 W/m² -
1788172038 15° C 91% 1020 hPa 0 mm - 9 W/m² -
1788171733 15° C 91% 1019.8 hPa 0 mm - 7 W/m² -
1788171429 15° C 91% 1019.6 hPa 0 mm - 5 W/m² -
1788171124 15° C 91% 1019.8 hPa 0 mm - 2 W/m² -
1788170820 15.56° C 91% 1019.7 hPa 0 mm - 1 W/m² -

* Rain latest hour (hover to see other rain measurements)
** Current wind speed in m/s (hover to see current wind gust speed)